COSMOS 1527

Satellite information

Favourite Embed

Satellite Type and Status

PAYLOADIN ORBIT

Key statistics

Satellite COSMOS 1527 at a glance.

Uptime

15161

Days in orbit

Revolutions

≈ 12.5

Per day

Orbit

LEO

Low Earth Orbit

Inclination

74.0

Latest

Satellite identification and parameters

Extended collection of information and parameters for COSMOS 1527.

Object identification

Identified? True

Debris? False

Object name: COSMOS 1527

International designator: 1984-001F

Object number (NORAD): 14616

Object ID (CCSDS): 14616

Country: COMMONWEALTH OF INDEPENDENT STATES (CIS)

Current information (Y/N): Y

RCS size: MEDIUM

Orbital parameters

Period: 115.099 minutes

Inclination: 74.0095 deg

SMA: 7838.042 km

Apoapsis: 1461.47 km

Periapsis: 1458.345 km

RAAN: 7.1548 deg

Eccentricy: 0.0001993

Argument of periapsis: 302.902 deg

Mean anomaly: 165.5978 deg

Mean motion: 12.51098054 rev/day

Mean motion (dot): -0.00000001 rev/day2

B* drag term: 0.000096984 1/REarth

Two-line elements (TLE)

Creation date: July 7, 2025, 10:16 p.m.

Reference frame: TEME

Reference center: EARTH

Epoch: July 7, 2025, 9:11 p.m. UTC

TLE line 0: 0 COSMOS 1527

TLE line 1: 1 14616U 84001F 25188.88322329 -.00000001 00000-0 96984-4 0 9994

TLE line 2: 2 14616 74.0095 7.1548 0001993 302.9020 165.5978 12.51098054484583

Live tracking on map

Real-time ground track for satellite COSMOS 1527.

In-orbit conjunctions

There are no conjunctions computed for COSMOS 1527, at the moment. Check back to stay up to date, as we update our databases every day.

Go to all conjunctions

Associated space launch

Military communications satellites

COSMOS 1527 was lifted into orbit during the mission ‘Kosmos-3M | Strela-1M 273-280’, on board a Kosmos-3M space rocket.

The launch took place on Jan. 5, 1984, 8:09 p.m. from 132/2.

For more information about the launch, click the button.

Launch to space Kosmos-3M | Strela-1M 273-280
Kosmos-3M | Strela-1M 273-280

Agency: N/A

Status: Launch Successful

Launch date: Jan. 5, 1984, 8:09 p.m. UTC

Rocket: Kosmos-3M

Launch pad: 132/2

Location: Plesetsk Cosmodrome, Russian Federation

...

Latest news about this satellite

There are no fresh news available about this satellite. Check back as we update our databases every day.


Newsletter sign-up

Weekly statistics, charts and insights to help you stay on top of the space industry.